Regional Weather Roundup
Issued by NWS

Home | Current Version | Previous Version | Text Only | Print | Product List | Glossary Off
Versions: 1 2 3 4 5 6 7 8 9 10 11 12 13 14 15 16 17 18 19 20 21 22 23 24 25 26 27 28 29 30 31 32 33 34 35 36 37 38 39 40 41 42 43 44 45 46 47 48 49 50

000
ASUS43 KDTX 030301
RWRMI
MICHIGAN HOURLY REGIONAL WEATHER ROUNDUP
NATIONAL WEATHER SERVICE DETROIT/PONTIAC MI
1100 PM EDT SAT MAY 02 2015

NOTE: "FAIR" INDICATES FEW OR NO CLOUDS BELOW 12,000 FEET WITH NO
SIGNIFICANT WEATHER AND/OR OBSTRUCTION TO VISIBILITY.

MIZ047>049-052>055-059>063-066>070-074>076-081>083-030400-
SOUTHEAST LOWER MICHIGAN

CITY           SKY/WX    TMP DP  RH WIND       PRES   REMARKS
ADRIAN         CLEAR     60  38  43 W3        30.03S
ALMA           CLEAR     55  39  56 S3        29.99S
ANN ARBOR      CLEAR     51  43  74 CALM      30.02R
BAD AXE        CLEAR     55  40  57 SW3       29.98S
CARO           CLEAR     53  40  63 CALM      29.98S
DETROIT CITY   CLEAR     62  41  46 SW8       30.01S
DETROIT        PTCLDY    59  44  57 S5        30.02R
FLINT          CLEAR     57  39  51 SW3       30.00S
GROSSE ILE     CLEAR     57  50  77 S6        30.00F
HILLSDALE      CLEAR     61  36  39 S3        30.03S
HOWELL         CLEAR     59  37  42 S3        30.01S

CITY           SKY/WX    TMP DP  RH WIND       PRES   REMARKS
JACKSON        CLEAR     55  39  54 S3        30.02S
LAMBERTVILLE   PTCLDY    57  43  58 CALM      30.03S
LANSING        PTCLDY    59  34  39 CALM      30.01S
LAPEER         FAIR      51  40  66 CALM      30.00S
MASON          MOCLDY    55  39  55 CALM      30.01S
PONTIAC        PTCLDY    60  40  47 CALM      30.00S
PORT HOPE        N/A     60  40  47 SW3       29.95S
PORT HURON     CLEAR     57  43  58 S5        30.00S
TRI CITIES     CLEAR     61  38  42 SW9       29.99R
MIDLAND        FAIR      63  33  33 SW5       29.97F
TROY           CLEAR     65  40  40 CALM      30.03R
SAGINAW HB     CLEAR     61  32  33 SW6       29.99S
$$
MIZ043>046-050>051-056>058-064>065-071>073-077>080-030400-
SOUTHWEST LOWER MICHIGAN

CITY           SKY/WX    TMP DP  RH WIND       PRES   REMARKS
BATTLE CREEK   CLEAR     57  41  55 SE6       30.01F
BENTON HARBOR  PTCLDY    52  41  66 E3        29.99S
BIG RAPIDS     CLEAR     55  36  48 SE3       29.97S
COLDWATER      CLEAR     55  39  55 CALM      30.02S
FREMONT        FAIR      58  29  32 CALM      29.97F
HOLLAND        CLEAR     56  39  53 SE5       29.99S
GRAND RAPIDS   CLEAR     56  34  43 S7        29.99S
IONIA          FAIR      58  35  40 S5        29.99S
KALAMAZOO      PTCLDY    57  38  48 CALM      30.01S
LUDINGTON      CLEAR     62  32  32 S6        29.95S
MARSHALL       CLEAR     53  42  66 S6        30.01F
MOUNT PLEASANT CLEAR     55  37  51 CALM      29.98S
MUSKEGON       PTCLDY    57  34  41 SE6       29.97S
SOUTH HAVEN    CLEAR     56  38  50 CALM      29.99S
$$
MIZ016>042-030400-
NORTHERN LOWER MICHIGAN

CITY           SKY/WX    TMP DP  RH WIND       PRES   REMARKS
ALPENA         CLEAR     47  39  74 CALM      29.94S
BEAVER ISLAND  PTCLDY    45  36  69 E3        29.91F
BELLAIRE       MOCLDY    58  42  55 CALM      29.92S
CADILLAC       CLEAR     58  37  45 S9        29.96S
CHARLEVOIX     MOCLDY    65  39  38 S7        29.93S
FRANKFORT      FAIR      65  32  29 S7        29.91S
GAYLORD        CLOUDY    59  40  49 S6        29.94R
GRAYLING       PTCLDY    62  35  36 CALM      29.96S
HARBOR SPRINGS PTCLDY    56  42  58 CALM      29.91S
HOUGHTON LAKE  MOCLDY    61  34  36 S7        29.97R
MANISTEE       CLEAR     63  36  36 S6        29.94S
OSCODA         CLEAR     58  42  56 S5        29.94R
PELLSTON       PTCLDY    54  43  66 CALM      29.91F
ROGERS CITY    PTCLDY    49  42  79 CALM      29.93S
TRAVERSE CITY  PTCLDY    64  38  38 CALM      29.91S
$$
MIZ007>008-015-030400-
EASTERN UPPER MICHIGAN

CITY           SKY/WX    TMP DP  RH WIND       PRES   REMARKS
KINROSS        CLEAR     52  39  62 SE6       29.91F
MACKINAC ISLAN CLEAR     44  36  73 SE6       29.91F
NEWBERRY       CLEAR     51  33  49 SW10      29.90S
S. S. MARIE    PTCLDY    53  40  61 CALM      29.91F
MUNISING         N/A     57  37  47 S9        29.83F
$$
MIZ004>006-011>014-085-030400-
CENTRAL UPPER MICHIGAN

CITY           SKY/WX    TMP DP  RH WIND       PRES   REMARKS
MANISTIQUE     PTCLDY    47  35  63 S10       29.88S
ESCANABA       PTCLDY    55  37  50 S12       29.84S
MENOMINEE      CLEAR     61  39  44 SW12      29.85S
SAWYER-GWINN   CLEAR     53  40  61 CALM      29.84F
$$
MIZ001>003-009>011-084-030400-
WESTERN UPPER MICHIGAN

CITY           SKY/WX    TMP DP  RH WIND       PRES   REMARKS
IRON MOUNTAIN  PTCLDY    61  42  49 S5        29.82S
HOUGHTON       PTCLDY    51  39  63 E7        29.80S
COPPER HARBOR    N/A     50  36  58 W9G20     29.79S
IRONWOOD       PTCLDY    68  43  40 S6        29.77R
$$

ABBREVIATIONS USED IN REMARKS
   TC - TEMPERATURE IN CELSIUS
  WCI - WIND CHILL INDEX
   HX - HEAT INDEX
  VSB - VISIBILITY



USA.gov is the U.S. government's official web portal to all federal, state and local government web resources and services.